Regional Weather Roundup
Issued by NWS Charleston, SC

Current Version | Previous Version | Graphics & Text | Print | Product List | Glossary On
Versions: 1 2 3 4 5 6 7 8 9 10 11 12 13 14 15 16 17 18 19 20 21 22 23 24 25 26 27 28 29 30 31 32 33 34 35 36 37 38 39 40 41 42 43 44 45 46 47 48 49 50
000 ASUS42 KCHS 270127 RWRCHS REGIONAL WEATHER ROUNDUP NATIONAL WEATHER SERVICE CHARLESTON SC 900 PM EDT WED APR 26 2017 NOTE: "FAIR" INDICATES FEW OR NO CLOUDS BELOW 12,000 FEET WITH NO SIGNIFICANT WEATHER AND/OR OBSTRUCTIONS TO VISIBILITY. NOT ALL STATIONS ARE QUALITY CONTROLLED. USE DATA WITH CAUTION... ESPECIALLY DEWPOINT OBSERVATIONS. SCZ027-030-031-034>040-042>050-270200- ...SOUTHEAST SOUTH CAROLINA... CITY SKY/WX TMP DP RH WIND PRES REMARKS N CHARLESTON CLEAR 70 57 63 S14 29.85S WATERFRONT PRK N/A 73 63 70 S10 29.84R JOHNS ISLAND FAIR 72 61 68 S15 29.87R PINOPOLIS N/A 73 57 56 VRB3 29.76S MONCKS CORNER FAIR 70 54 56 S5 29.86R SUMMERVILLE FAIR 68 57 68 S3 29.87R BEAUFORT MCAS CLEAR 72 66 81 S7 29.85R BEAUFORT ARPT FAIR 70 63 78 S5 29.86R HILTON HEAD IS CLEAR 72 63 73 VRB7G14 29.87S WALTERBORO CLEAR 68 61 77 SE7 29.86S ALLENDALE FAIR 72 59 64 SE8 29.82R ...SOUTHERN MIDLANDS AND PEE DEE... CITY SKY/WX TMP DP RH WIND PRES REMARKS GEORGETOWN FAIR 68 59 73 SW7 29.87R KINGSTREE FAIR 72 57 60 SE8 29.84R ORANGEBURG CLEAR 74 61 63 S6 29.82R BARNWELL FAIR 75 63 64 SE10 29.82R AIKEN FAIR 68 59 73 SE3 29.84R MANNING FAIR 72 59 64 S23G35 29.83R COLUMBIA CLEAR 75 60 59 S3 29.79R SUMTER CLEAR 73 61 67 S8 29.79R FLORENCE CLEAR 71 63 75 S5 29.82R MYRTLE BEACH CLEAR 73 63 68 SW12 29.86R N MYRTLE BEACH CLEAR 72 63 73 SW13 29.85R $$ GAZ063-065-086>088-099>101-113>116-118-119-134>141-150-270200- ...SOUTHEAST GEORGIA... CITY SKY/WX TMP DP RH WIND PRES REMARKS SAVANNAH ARPT PTCLDY 71 60 68 S9 29.85R HUNTER AAF CLEAR 71 66 83 CALM 29.83R FORT STEWART PTCLDY 71 62 72 SE7 29.82R STATESBORO CLEAR 74 62 65 SE7 29.83R SYLVANIA CLEAR N/A N/A N/A S3 29.83R CLAXTON FAIR 73 65 76 E5 29.83R ...CSRA...CENTRAL AND FAR SOUTHEAST GEORGIA... CITY SKY/WX TMP DP RH WIND PRES REMARKS THOMSON CLEAR 68 62 80 SW3 29.85R AUGUSTA-BUSH CLEAR 72 62 71 S3 29.78S AUGUSTA-DANIEL CLEAR 78 57 48 S3 29.80S SWAINSBORO FAIR 72 63 73 CALM 29.82R VIDALIA MOCLDY 72 61 68 S3 29.81S EASTMAN FAIR 68 52 56 CALM 29.83S HAZLEHURST MOCLDY 75 61 62 S5 29.81R ALMA PTCLDY 71 60 68 S5 29.82R WAYCROSS CLEAR 73 59 60 SW7 29.84R JESUP CLOUDY 72 63 73 S6 29.85R BAXLEY MOCLDY 73 61 64 S6 29.82R BRUNSWICK PTCLDY 73 64 73 S7 29.86S SAINT SIMONS PTCLDY 73 61 65 S10 29.86R $$ SCZ027-028-034-036>038-045-046-048>050-GAZ119-141-270200- ...LAKE AND SUPPLEMENTAL COASTAL OBSERVATIONS... STATION/POSITION TIME TEMP WIND PRES WAVE SWELL AIR SEA DIR/SP/G HT/PER HT/PER/DIR (UTC) (F) (DEG/KT/KT) (MB) (FT/S) (FT/S/D) WINYAH BAY 0030 73 210/ 11 1010.0S LAKE MURRAY 0020 75 CALM / 4 1008.1 ACE BASIN NERRS 0045 71 160/ 2 1011.0S FORT PULASKI 0100 72 74 190/ 5/ 9 1011.1 SAPELO ISLAND 0045 73 180/ 12 1011.0R $$ ANZ835-935-AMZ111-154-330-350-352-354-370-450-454-472-270200- ...C-MAN AND BUOY OBSERVATIONS... STATION/POSITION TIME TEMP WIND PRES WAVE SWELL AIR SEA DIR/SP/G HT/PER HT/PER/DIR (UTC) (F) (DEG/KT/KT) (MB) (FT/S) (FT/S/D) BUOY 41004 0100 73 200/ 10/ 14 1012.1 BUOY 41008 0050 73 72 160/ 14/ 16 1010.6R 3/10 2/100/10 FOLLY BEACH CMAN 0100 73 170/ 15/ 20 1011.8R CAPERS NEARSHORE 0108 76 72 180/ 14/ 19 1011.1R FRIPP NEARSHORE 0108 72 71 190/ 12/ 14 1011.0R STATION/POSITION TIME TEMP WIND PRES WAVE SWELL AIR SEA DIR/SP/G HT/PER HT/PER/DIR (UTC) (F) (DEG/KT/KT) (MB) (FT/S) (FT/S/D) 5E ST. MARYS GA 0100 73 N/A 3/ 9 2/110/11 FRYING PAN BUOY 0100 74 210/ 14/ 16 1011.5 BUOY 41025 0050 74 77 230/ 12/ 16 1011.1R 6/ 9 5/150/ 9 CAPE LOOKOUT NC 0100 72 200/ 9/ 11 1011.0R BUOY 41002 0050 74 75 220/ 12/ 14 1013.8R 6/ 8 5/120/ 8 BUOY 41010 0100 76 180/ 8/ 10 1013.8 ST AUGUSTINE FL 0100 74 76 150/ 16/ 17 1012.4R $$

USA.gov is the U.S. government's official web portal to all federal, state and local government web resources and services.